Powrót do katalogu

DELTA 1 DEB

AktywnySSO
NORAD 10647·DEBRIS·🇺🇸 United States

Wystrzelony Jul 29, 1976 z Vandenberg Space Force Base

Loading…

Następne Przeloty (najbliższe 24 godziny)

TLE

ŚwieżeSource: Space-Track

Epoka: Sep 13, 2026, 04:50 UTC

1 10647U 76077H   26256.20148433  .00000056  00000-0  10490-2 0  9998
2 10647 102.7604 353.3030 0164891 337.3944  49.2982 12.11312390216881

Śledź DELTA 1 DEB w czasie rzeczywistym z AllMySat

Download on the App Store